www.pogodaiklimat.ru

Погода и климат >> Архив погоды >> Россия >> Краснодарский край >> Сочи аэропорт (Адлер)


ПОГОДА в Сочи аэропорту (Адлер)

  • Прогноз погоды в Сочи аэропорту (Адлер)
  • Монитор погоды в Сочи аэропорту (Адлер)
  • Климат города

АРХИВ ПОГОДЫ в Сочи аэропорту (Адлер)

Время (UTC), дата Ветер
(напр.,м/с)
 
Видим.   Явления Облачность Т
(С)
Тd
(С)
f
(%)
Тe
(С)
Тes
(С)
Комфортность P
(гПа)
Po
(гПа)
Тmin
(С)
Tmax
(С)
R
(мм)
R24
(мм)
S
(см)
21 13.06 СВ 2 4000 м ясно +19.8 +13.5 67 +22 +22 комфорт 1005.3 1003.6
00 14.06 В 2 4000 м ясно +21.2 +15.1 68 +24 +24 комфорт 1005.5 1003.8
03 14.06 СВ 4 20 км ясно +21.4 +15.0 67 +25 +25 комфорт 1005.9 1004.2 +19.2
06 14.06 Ю 1 20 км ясно +27.4 +17.2 54 +31 +44 душно 1006.0 1004.3
09 14.06 З 4 20 км ясно +28.0 +18.4 56 +33 +46 очень
душно
1005.7 1004.0
12 14.06 З 4 20 км ясно +27.2 +20.5 67 +34 +43 очень
душно
1004.8 1003.1
15 14.06 СЗ 4 20 км 1/1 1000 м
[Cu hum]
+27.2 +19.2 62 +33 +34 очень
душно
1003.2 1001.5 +28.7
18 14.06 С 3 4000 м ясно +24.5 +21.4 83 +31 +31 очень
душно
1004.5 1002.8
21 14.06 В 2 4000 м ясно +21.6 +18.7 84 +26 +26 душно 1005.2 1003.5
00 15.06 СВ 2 4000 м ясно +20.8 +17.6 82 +25 +25 комфорт 1004.9 1003.2
03 15.06 СВ 2 20 км 6/0
[Ci fib]
+22.4 +17.0 72 +27 +28 душно 1004.4 1002.7 +20.3
06 15.06 З 2 20 км 9/0
[Ac trans Ci fib]
+28.4 +17.9 53 +33 +40 очень
душно
1004.9 1003.2
09 15.06 СЗ 4 20 км гроза без осадков {ливн. осадки} 5/3 1500 м
[Cb cap Ac trans]
+29.1 +18.7 53 +34 +42 очень
душно
1005.1 1003.4
12 15.06 З 5 20 км {гроза, ливн. осадки} 3/3 1500 м
[Cb cap]
+28.6 +20.1 60 +35 +40 очень
душно
1004.8 1003.1
15 15.06 С 5 20 км 6/1 1500 м
[Cb cap Ci fib]
+27.6 +20.6 66 +34 +35 очень
душно
1005.1 1003.4 +30.2 1
18 15.06 штиль 0 4000 м гроза без осадков 10/1 1500 м
[Cb cap Ac trans Ci fib]
+25.0 +23.0 89 +33 +33 очень
душно
1007.1 1005.4
21 15.06 В 2 4000 м гроза без осадков 10/10 300 м
[Cb cap]
+24.8 +23.0 90 +33 +33 очень
душно
1008.3 1006.6
00 16.06 В 3 4000 м в посл. час ливневой дождь {гроза} 10/6 1050 м
[Cb cap Ac und]
+23.5 +19.3 77 +28 +28 душно 1007.5 1005.8
03 16.06 В 3 20 км 10/3 1500 м
[Cb cap Ac und]
+22.8 +17.7 73 +28 +28 душно 1007.7 1006.0 +22.4 0.0
06 16.06 СВ 2 20 км 10/3 1500 м
[Cb cap Ac und]
+24.0 +19.7 77 +29 +32 душно 1008.6 1006.9
09 16.06 ЮЗ 1 10 км слабый ливневой дождь 10/8 900 м
[Cb cap Ac und]
+25.0 +20.8 78 +31 +33 очень
душно
1008.8 1007.1
12 16.06 З 4 10 км {ливн. осадки} 10/3 600 м
[Cb cap Ac trans Ci fib]
+26.1 +21.6 76 +33 +37 очень
душно
1009.1 1007.4
15 16.06 В 3 20 км в посл. час гроза 9/1 1500 м
[Cb cap Ac trans]
+25.6 +17.7 62 +30 +31 душно 1008.4 1006.7 +26.9 0.0
18 16.06 В 3 4000 м {гроза} 3/1 450 м
[St Ac trans]
+23.0 +18.7 77 +29 +29 очень
душно
1008.5 1006.8
21 16.06 СВ 4 4000 м 3/3 500 м
[Sc]
+21.9 +17.9 78 +27 +27 душно 1008.6 1006.9
00 17.06 СЗ 2 4000 м ясно +21.0 +16.9 77 +25 +25 комфорт 1007.7 1005.9
03 17.06 СВ 3 20 км 8/0
[Ci fib]
+21.4 +15.8 70 +25 +25 комфорт 1006.5 1004.8 +20.2
06 17.06 В 2 10 км 9/3 1500 м
[Cb cap Ac trans]
+26.0 +17.4 59 +30 +34 душно 1007.8 1006.1
09 17.06 З 4 10 км {гроза} 5/4 1000 м
[Cb cap Ci ing]
+27.0 +19.5 64 +33 +40 очень
душно
1007.3 1005.6
12 17.06 З 4 10 км {гроза} 5/3 600 м
[Cb cap Ac trans]
+26.6 +20.2 68 +33 +38 очень
душно
1007.0 1005.3
15 17.06 З 5 20 км 6/3 600 м
[Cb cap Ci fib]
+26.2 +20.8 72 +33 +34 очень
душно
1006.0 1004.3 +28.7
18 17.06 З 2 4000 м 5/0
[Ci fib]
+24.4 +19.5 74 +30 +30 очень
душно
1006.9 1005.2
21 17.06 СВ 1 4000 м 4/0
[Ac trans]
+22.2 +18.4 79 +27 +27 душно 1005.9 1004.2
00 18.06 штиль 0 4000 м 8/0
[Ac trans]
+20.8 +17.9 83 +24 +24 комфорт 1005.7 1004.0
03 18.06 СВ 4 20 км 8/0
[Ac trans]
+21.7 +15.5 68 +25 +26 комфорт 1005.4 1003.7 +19.7
06 18.06 СВ 1 20 км 8/0
[Ac trans]
+26.8 +18.4 60 +32 +38 очень
душно
1005.1 1003.4
09 18.06 Ю 3 20 км 9/3 1500 м
[Cb cap Ac trans Ci fib]
+26.2 +18.7 63 +31 +38 очень
душно
1006.1 1004.4
12 18.06 СЗ 4
{12}
20 км в посл. час гроза {ливн. осадки} 10/3 1000 м
[Cb cap Ac und]
+24.0 +18.0 69 +28 +30 душно 1007.0 1005.3
15 18.06 З 6 20 км 6/1 1000 м
[Cu hum Ac trans]
+24.3 +18.1 68 +29 +29 душно 1006.5 1004.8 +27.9 0.0
18 18.06 СВ 1 4000 м 3/0
[Ac trans]
+23.0 +18.2 74 +29 +29 очень
душно
1006.4 1004.7
21 18.06 СВ 3 4000 м 8/0
[Ac trans]
+21.4 +17.7 79 +26 +26 душно 1008.5 1006.8
00 19.06 В 3 4000 м гроза без осадков 9/5 660 м
[Cb cap Ci fib]
+20.9 +16.9 78 +25 +25 комфорт 1008.9 1007.1
03 19.06 В 4 20 км 9/3 600 м
[Cb cap Ac trans]
+20.4 +16.1 76 +23 +24 комфорт 1009.5 1007.7 +20.0 0.0
06 19.06 ЮВ 3 20 км гроза без осадков {ливн. осадки} 9/3 600 м
[Cb cap Ac trans Ci fib]
+25.0 +18.4 67 +30 +33 душно 1010.5 1008.8
09 19.06 ЮВ 2 20 км {гроза} 8/3 600 м
[Cb cap Ac trans]
+24.1 +19.5 75 +29 +37 душно 1010.8 1009.1
12 19.06 ЮЗ 3 10 км гроза без осадков 5/3 600 м
[Cb cap Ci ing]
+26.1 +20.3 70 +32 +40 очень
душно
1011.2 1009.5
15 19.06 З 5 20 км в посл. час гроза 8/1 1000 м
[Cb cap Ci ing]
+25.3 +19.6 71 +31 +32 очень
душно
1010.5 1008.8 +27.3
18 19.06 СВ 2 4000 м {гроза} 1/0
[Ci fib]
+23.5 +19.3 77 +28 +28 душно 1010.7 1009.0
21 19.06 В 3 4000 м ясно +21.0 +16.5 75 +25 +25 комфорт 1011.9 1010.1
00 20.06 В 3 4000 м ясно +20.0 +15.4 75 +23 +23 комфорт 1012.3 1010.5
03 20.06 СВ 5 20 км 1/1 1000 м
[Cu med, cong]
+20.8 +14.5 67 +24 +24 комфорт 1012.8 1011.0 +19.8
06 20.06 З 3 20 км 1/1 1000 м
[Cu med, cong]
+26.4 +18.1 60 +31 +39 душно 1013.4 1011.7
09 20.06 З 4 20 км 1/1 1000 м
[Cu med, cong]
+26.2 +19.7 67 +32 +44 очень
душно
1014.0 1012.3
12 20.06 З 6 20 км 1/1 1500 м
[Cu med, cong]
+27.2 +21.0 69 +34 +39 очень
душно
1013.3 1011.6
15 20.06 З 5 20 км 1/1 1500 м
[Cu hum]
+26.1 +21.5 76 +33 +35 очень
душно
1012.8 1011.1 +27.8

 

Местоположение метеостанции Сочи аэропорт (Адлер) (Краснодарский край, Россия): широта 43.43 долгота 39.90 высота над уровнем моря 15 м.

В архиве по умолчанию представлена погода в Сочи аэропорту (Адлер) за последнюю неделю. Архивные данные за месяц целиком и за предыдущие месяцы, начиная с января 2011 года, Вы можете получить, выбрав интересующий диапазон дат из раскрывающегося списка и нажав кнопку "Ввод!".


*Определитесь, кто Вы:
робот инопланетянин человек

Внимание! Время в таблицах - всемирное. Для получения местного времени необходимо прибавить поправку, которая в Сочи аэропорту (Адлер) равна 3 ч.

Смотрите также архив погоды в соседних городах и на ближайших метеорологических станциях:

Погода в Имеретинке (Краснодарский край, Россия) (5 км)
Погода в Сочи (Краснодарский край, Россия) (20 км)
Погода в Кепше (Краснодарский край, Россия) (24 км)
Погода в Красной Поляне (Краснодарский край, Россия) (37 км)
Погода в Горная Карусель 1500 (Краснодарский край, Россия) (40 км)
Погода в Горная Карусель 1000 (Краснодарский край, Россия) (40 км)
Погода в Кордоне Лаура (Краснодарский край, Россия) (44 км)
Погода в Солох Ауле (Краснодарский край, Россия) (47 км)
Погода в Кичмае (Краснодарский край, Россия) (54 км)
Погода в Гузерипле (Адыгея, Россия) (66 км)

Пояснения к столбцам:

Ветер - указаны скорость ветра в м/с - средняя за 10 мин, порывы в срок и между сроками (в фигурных скобках) и направление, откуда дует ветер: С - северный, СВ - северо-восточный, В - восточный, ЮВ - юго-восточный, Ю - южный, ЮЗ - юго-западный, З - западный, СЗ - северо-западный.
Видимость - горизонтальная дальность видимости в метрах или километрах. При видимости от 1 до 10 км при отсутствии осадков обычно наблюдается дымка, при ухудшении видимости до 1 км и менее - туман. В сухую погоду видимость может ухудшаться дымом, пылью или мглою.
Явления - указаны атмосферные явления, наблюдавшиеся в срок или в последний час перед сроком; фигурными скобками обозначены явления, наблюдавшиеся между сроками (за 1-3 часа до срока); квадратными скобками обозначены град или гололедные отложения с указанием их диаметра в мм.
Облачность - указаны через наклонную черту общая и нижняя облачность в баллах и высота нижней границы облаков в метрах; квадратными скобками обозначены формы облаков: Ci - перистые, Cs - перисто-слоистые, Cc - перисто-кучевые, Ac - высококучевые, As - высокослоистые, Sc - слоисто-кучевые, Ns - слоисто-дождевые, Cu - кучевые, Cb - кучево-дождевые. Подробнее классификацию облаков см. в Атласе облаков (PDF).
T - Температура воздуха - температура, измеренная на высоте 2 м над землей.
Td - Температура точки росы - температура, при понижении до которой содержащийся в воздухе водяной пар достигнет насыщения.
f - Относительная влажность воздуха - влажноcть воздуха, измеренная на высоте 2 м над землей.
Te - Эффективная температура - температура, которую ощущает одетый по сезону человек в тени. Характеристика душности погоды. При расчете учитывается влияние влажности воздуха и скорости ветра на теплоощущения человека.
Tes - Эффективная температура на солнце - температура, которую ощущает человек, с поправкой на солнечный нагрев. Характеристика знойности погоды. Зависит от высоты солнца над горизонтом, облачности и скорости ветра. Ночью, в пасмурную погоду, а также при ветре 12 м/с и более поправка равна нулю.
P - Атмосферное давление - приведенное к уровню моря атмосферное давление.
Po - Атмосферное давление - измеренное на уровне метеостанции атмосферное давление.
Tmin - Минимальная температура - минимум температуры воздуха на высоте 2 м над землей.
Tmax - Максимальная температура - максимум температуры воздуха на высоте 2 м над землей.
R - Количество осадков - Количество выпавших осадков за период времени, мм. При наведении курсора мыши на число - период времени, за который выпало указанное количество осадков.
R24 - Количество осадков - Количество выпавших осадков за 24 часа, мм.
S - Снежный покров - Высота снежного покрова, см. При наведении курсора мыши на число - состояние снежного покрова и степень покрытия местности в баллах.